Location: ??? ???
(33.4974°N, 35.4618°E)
Time: 11:12:07
(UTC+00:00)

Cosmos 44 Rocket - Pass Details

Date: 29 October 2020
Orbit: 642 x 748 km, 65.1° (Epoch: 26 November)

Event Time Altitude Azimuth Distance (km) Brightness Sun altitude
Rises 16:30:48 0° 225° (SW) 2,963 7.3 -21.8°
Reaches altitude 10° 16:33:11 10° 233° (SW) 2,068 6.5 -22.3°
Maximum altitude 16:37:35 40° 303° (WNW) 994 4.4 -23.2°
Enters shadow 16:41:11 15° 8° (N) 1,798 5.3 -24.0°
